Date,Time,POSIXct,Latitude,Longitude,ID,bearing,time_diff,distance_m,calc_speed,dist_from_skomer,wind,hour
22/07/2016, 22:42:57,22/07/2016 22:42,51.75016,-5.280432,bird 1,298.5731965,1381,701.6911667,0.508103669,1440.718869,289.2,22:00:00
22/07/2016, 23:05:58,22/07/2016 23:05,51.75317,-5.289361,bird 1,275.4443564,291,197.5548361,0.678882598,1838.467262,275.9,23:00:00
22/07/2016, 23:10:49,22/07/2016 23:10,51.753338,-5.292209,bird 1,270.1225412,291,210.686776,0.72400954,1918.117633,275.9,23:00:00
22/07/2016, 23:15:40,22/07/2016 23:15,51.753342,-5.29526,bird 1,272.2230632,290,230.1936012,0.793771038,2003.841721,269.4,23:00:00
22/07/2016, 23:20:30,22/07/2016 23:20,51.753422,-5.298591,bird 1,277.6785908,287,318.1393731,1.108499558,2124.472796,269.4,23:00:00
22/07/2016, 23:30:06,22/07/2016 23:30,51.752686,-5.292501,bird 1,289.3575277,289,106.3194457,0.367887355,1858.284706,271.7,23:00:00
22/07/2016, 23:34:55,22/07/2016 23:34,51.753002,-5.293954,bird 1,275.0353044,290,277.146058,0.955676062,1930.664222,271.7,23:00:00
22/07/2016, 23:39:45,22/07/2016 23:39,51.75322,-5.297952,bird 1,260.3502301,291,286.7507927,0.985397913,2082.195145,281.4,23:00:00
22/07/2016, 23:44:36,22/07/2016 23:44,51.752789,-5.302046,bird 1,256.9488693,293,333.8377976,1.139378149,2204.485253,281.4,23:00:00
22/07/2016, 23:49:29,22/07/2016 23:49,51.752113,-5.306756,bird 1,246.1244351,293,328.9068037,1.122548818,2366.113214,289.4,23:00:00
22/07/2016, 23:54:22,22/07/2016 23:54,51.750919,-5.311113,bird 1,240.7137749,292,388.5420466,1.330623447,2506.593947,289.4,23:00:00
22/07/2016, 23:59:14,22/07/2016 23:59,51.749214,-5.316023,bird 1,231.8510105,319,475.53657,1.490710251,2684.121116,281.9,23:00:00
23/07/2016, 00:04:33,23/07/2016 00:04,51.746578,-5.321443,bird 1,232.7066893,291,476.36436,1.636990928,2896.530357,281.9,0:00:00
23/07/2016, 00:09:24,23/07/2016 00:09,51.743988,-5.326935,bird 1,226.1487007,291,460.7239782,1.583243911,3172.385501,278.7,0:00:00
23/07/2016, 00:14:15,23/07/2016 00:14,51.741123,-5.331751,bird 1,218.5263623,291,484.8784298,1.6662489,3441.377793,278.7,0:00:00
23/07/2016, 00:19:06,23/07/2016 00:19,51.737717,-5.33613,bird 1,208.5620846,292,455.5491073,1.560099682,3716.323775,283.3,0:00:00
23/07/2016, 00:23:58,23/07/2016 00:23,51.734123,-5.339289,bird 1,200.4719116,292,448.5879694,1.536260169,3948.956478,283.3,0:00:00
23/07/2016, 00:28:50,23/07/2016 00:28,51.730347,-5.341565,bird 1,196.4943042,292,470.2796364,1.6105467,4161.890295,321.3,0:00:00
23/07/2016, 00:33:42,23/07/2016 00:33,51.726295,-5.343502,bird 1,190.4704544,291,472.9905226,1.625396985,4396.189162,321.3,0:00:00
23/07/2016, 00:38:33,23/07/2016 00:38,51.722115,-5.344749,bird 1,186.5138267,313,500.7010416,1.599683839,4627.015574,51.48,0:00:00
23/07/2016, 00:43:46,23/07/2016 00:43,51.717644,-5.345573,bird 1,185.3614067,314,487.6914699,1.553157547,4880.968872,51.48,0:00:00
10/08/2016, 02:32:03,10/08/2016 02:32,51.744755,-5.273511,bird 2,3.320963439,294,428.0820514,1.456061399,1025.624629,320,2:00:00
10/08/2016, 23:52:49,10/08/2016 23:52,51.746147,-5.27793,bird 2,251.4373576,296,58.85255659,0.198826205,1031.617868,289.1,23:00:00
10/08/2016, 23:57:45,10/08/2016 23:57,51.745979,-5.278738,bird 2,251.8011494,322,73.55707279,0.228438114,999.1303772,294.3,23:00:00
11/08/2016, 00:03:07,11/08/2016 00:03,51.745773,-5.27975,bird 2,247.2047823,330,84.32538494,0.25553147,962.4330542,294.3,0:00:00
11/08/2016, 00:08:37,11/08/2016 00:08,51.74548,-5.280876,bird 2,254.7270123,328,84.25316594,0.256869408,919.6702336,301.5,0:00:00
11/08/2016, 00:14:05,11/08/2016 00:14,51.745281,-5.282053,bird 2,150.2476276,326,695.0355483,2.132010884,893.280776,301.5,0:00:00
11/08/2016, 01:24:01,11/08/2016 01:24,51.739861,-5.27705,bird 2,175.5075154,1322,1729.90548,1.3085518,456.6185229,298.4,1:00:00
11/08/2016, 01:55:36,11/08/2016 01:55,51.707623,-5.307665,bird 2,208.338555,289,290.5336692,1.005306814,3733.158479,301.1,1:00:00
11/08/2016, 02:00:25,11/08/2016 02:00,51.705326,-5.309664,bird 2,204.0268876,288,217.5351651,0.755330434,4023.344969,301.1,2:00:00
11/08/2016, 02:05:13,11/08/2016 02:05,51.703541,-5.310948,bird 2,216.0021152,289,216.3898179,0.748753695,4240.141575,291,2:00:00
11/08/2016, 02:10:02,11/08/2016 02:10,51.701969,-5.312791,bird 2,232.8650466,290,227.4275355,0.784232881,4454.139016,291,2:00:00
11/08/2016, 02:14:52,11/08/2016 02:14,51.700737,-5.315416,bird 2,245.2256533,289,253.826624,0.878292817,4661.408752,291,2:00:00
11/08/2016, 02:19:41,11/08/2016 02:19,51.699783,-5.318751,bird 2,262.1669138,288,339.5735492,1.179074824,4868.951223,289.2,2:00:00
19/07/2016, 02:40:34,19/07/2016 02:40,51.760826,-5.291026,bird 3,8.705859207,294,130.1267373,0.44260795,2691.795393,109.2,2:00:00
19/07/2016, 02:45:28,19/07/2016 02:45,51.761982,-5.29074,bird 3,3.144277284,295,131.8234153,0.446859035,2812.944539,111.1,2:00:00
19/07/2016, 02:50:23,19/07/2016 02:50,51.763165,-5.290635,bird 3,338.0309673,295,537.4454281,1.821848909,2940.245389,111.1,2:00:00
19/07/2016, 02:55:18,19/07/2016 02:55,51.767643,-5.293554,bird 3,358.7741499,299,199.5403775,0.667359122,3469.516518,113.5,2:00:00
19/07/2016, 03:00:17,19/07/2016 03:00,51.769436,-5.293616,bird 3,353.3582022,306,248.2333702,0.811220164,3664.921968,113.5,3:00:00
19/07/2016, 03:05:23,19/07/2016 03:05,51.771652,-5.294033,bird 3,332.3082423,305,552.5717812,1.811710758,3911.812602,116.5,3:00:00
20/07/2016, 00:02:34,20/07/2016 00:02,51.766655,-5.257936,bird 3,210.4029882,307,308.2586715,1.004099907,3670.730142,357.5,0:00:00
20/07/2016, 00:07:41,20/07/2016 00:07,51.764267,-5.2602,bird 3,199.2304891,311,138.0268593,0.443816268,3363.444161,27,0:00:00
20/07/2016, 00:12:52,20/07/2016 00:12,51.763096,-5.26086,bird 3,216.9230691,311,116.4585807,0.37446489,3226.768171,27,0:00:00
20/07/2016, 00:18:03,20/07/2016 00:18,51.76226,-5.261875,bird 3,207.3326814,311,144.3613177,0.464184301,3112.277569,17.85,0:00:00
20/07/2016, 00:23:14,20/07/2016 00:23,51.761108,-5.262837,bird 3,205.1001876,312,44.98957195,0.144197346,2968.092869,17.85,0:00:00
20/07/2016, 00:28:26,20/07/2016 00:28,51.760742,-5.263114,bird 3,174.5389389,312,126.6384791,0.405892561,2923.168171,12.49,0:00:00
20/07/2016, 00:33:38,20/07/2016 00:33,51.759609,-5.262939,bird 3,210.20642,314,127.7969321,0.406996599,2816.793468,12.49,0:00:00
20/07/2016, 00:38:52,20/07/2016 00:38,51.758617,-5.263872,bird 3,232.8570092,313,112.5872536,0.359703686,2689.253965,45.1,0:00:00
20/07/2016, 00:44:05,20/07/2016 00:44,51.758007,-5.265173,bird 3,211.7813198,312,141.4591065,0.453394572,2587.816296,45.1,0:00:00
20/07/2016, 00:49:17,20/07/2016 00:49,51.756927,-5.266254,bird 3,222.1826873,315,120.8608603,0.383685271,2447.090616,45.05,0:00:00
20/07/2016, 00:54:32,20/07/2016 00:54,51.756123,-5.267431,bird 3,217.698055,312,114.9948129,0.368573118,2331.104647,45.05,0:00:00
20/07/2016, 00:59:44,20/07/2016 00:59,51.755306,-5.268451,bird 3,225.535973,312,107.3586576,0.344098262,2218.883356,55.05,0:00:00
20/07/2016, 01:04:56,20/07/2016 01:04,51.754631,-5.269562,bird 3,214.0811456,309,72.33096632,0.234080797,2118.744602,55.05,1:00:00
20/07/2016, 01:10:05,20/07/2016 01:10,51.754093,-5.27015,bird 3,209.602024,311,99.61927816,0.320319222,2047.629634,50.62,1:00:00
20/07/2016, 01:15:16,20/07/2016 01:15,51.753315,-5.270864,bird 3,232.0262661,307,67.73729308,0.220642648,1948.663446,60.01,1:00:00
20/07/2016, 01:20:23,20/07/2016 01:20,51.752941,-5.271638,bird 3,231.6651168,307,71.32722469,0.232336237,1889.534846,60.01,1:00:00
20/07/2016, 01:25:30,20/07/2016 01:25,51.752544,-5.272449,bird 3,183.8052062,308,53.97071243,0.175229586,1827.679065,68.2,1:00:00
20/07/2016, 01:30:38,20/07/2016 01:30,51.75206,-5.272501,bird 3,201.2883954,309,40.61343433,0.131435063,1776.361562,68.2,1:00:00
20/07/2016, 01:35:47,20/07/2016 01:35,51.75172,-5.272715,bird 3,190.8914764,308,41.92619035,0.136123995,1735.78989,48.74,1:00:00
20/07/2016, 01:40:55,20/07/2016 01:40,51.75135,-5.27283,bird 3,151.6622016,308,52.99706784,0.172068402,1694.699917,48.74,1:00:00
20/07/2016, 01:46:03,20/07/2016 01:46,51.750931,-5.272465,bird 3,299.4490429,308,58.72832018,0.190676364,1661.625986,296.5,1:00:00
20/07/2016, 01:51:11,20/07/2016 01:51,51.75119,-5.273206,bird 3,315.6425396,307,30.38309181,0.098967726,1668.509069,296.5,1:00:00
20/07/2016, 01:56:18,20/07/2016 01:56,51.751385,-5.273514,bird 3,187.2343739,308,249.4438202,0.809882533,1681.044339,313.2,1:00:00
20/07/2016, 02:01:26,20/07/2016 02:01,51.749161,-5.27397,bird 3,250.1418993,307,146.7393115,0.477978213,1439.851804,313.2,2:00:00
20/07/2016, 02:06:33,20/07/2016 02:06,51.748714,-5.275969,bird 3,351.312379,308,52.90348992,0.171764578,1344.4641,318.4,2:00:00
20/07/2016, 02:11:41,20/07/2016 02:11,51.749184,-5.276085,bird 3,38.1095506,309,33.40467026,0.108105729,1391.699406,318.4,2:00:00
20/07/2016, 02:16:50,20/07/2016 02:16,51.74942,-5.275786,bird 3,14.2560078,310,59.58941375,0.192223915,1422.966629,340.5,2:00:00
20/07/2016, 02:27:09,20/07/2016 02:27,51.767307,-5.284116,bird 3,349.7106523,306,690.7604966,2.257387244,3345.122608,337,2:00:00
20/07/2016, 02:32:15,20/07/2016 02:32,51.773415,-5.285908,bird 3,53.9934156,307,88.91474082,0.289624563,4029.847663,337,2:00:00
20/07/2016, 02:37:22,20/07/2016 02:37,51.773884,-5.284865,bird 3,29.68994163,308,91.37716679,0.296679113,4077.991396,30.47,2:00:00
20/07/2016, 02:42:30,20/07/2016 02:42,51.774597,-5.284208,bird 3,25.80755549,308,101.8880233,0.33080527,4155.416812,30.47,2:00:00
22/07/2016, 02:46:23,22/07/2016 02:46,51.74379,-5.280124,bird 4,339.8953216,299,489.1280045,1.635879614,740.9108234,158.8,2:00:00
22/07/2016, 02:51:22,22/07/2016 02:51,51.747917,-5.282564,bird 4,355.7118311,295,68.17325718,0.231095787,1186.674452,158.8,2:00:00
22/07/2016, 02:56:17,22/07/2016 02:56,51.748528,-5.282638,bird 4,355.7791976,304,84.23288147,0.277081847,1254.71915,158.7,2:00:00
22/07/2016, 03:01:21,22/07/2016 03:01,51.749283,-5.282728,bird 4,343.3145179,311,65.98911389,0.212183646,1338.809798,158.7,3:00:00
22/07/2016, 03:06:32,22/07/2016 03:06,51.749851,-5.283003,bird 4,359.8484147,311,78.10662147,0.251146693,1402.594085,158,3:00:00
22/07/2016, 03:11:43,22/07/2016 03:11,51.750553,-5.283006,bird 4,49.30669049,311,99.80596772,0.32091951,1480.598438,158,3:00:00
22/07/2016, 03:16:54,22/07/2016 03:16,51.751137,-5.281909,bird 4,7.049181798,311,88.12194139,0.283350294,1544.505627,161.6,3:00:00
22/07/2016, 03:22:05,22/07/2016 03:22,51.751923,-5.281752,bird 4,59.53866939,313,146.6717573,0.468599864,1632.052156,161.6,3:00:00
22/07/2016, 03:42:49,22/07/2016 03:42,51.713245,-5.312406,bird 4,154.2369674,312,376.7373744,1.207491584,3385.561082,158.6,3:00:00
22/07/2016, 03:48:01,22/07/2016 03:48,51.710197,-5.310032,bird 4,162.5515893,311,715.5589493,2.300832634,3568.17362,159.5,3:00:00
22/07/2016, 20:00:53,22/07/2016 20:00,51.706783,-5.319192,bird 4,345.4409587,312,344.8014083,1.105132719,4240.331276,302.4,20:00:00
22/07/2016, 20:06:05,22/07/2016 20:06,51.709782,-5.320449,bird 4,344.120375,315,342.4689277,1.087202945,4034.973982,290.5,20:00:00
22/07/2016, 20:11:20,22/07/2016 20:11,51.712742,-5.321808,bird 4,342.7460304,315,359.1504949,1.140160301,3857.577149,290.5,20:00:00
22/07/2016, 20:16:35,22/07/2016 20:16,51.715824,-5.323353,bird 4,338.8807562,314,361.8792243,1.152481606,3704.401292,291.6,20:00:00
22/07/2016, 20:21:49,22/07/2016 20:21,51.718857,-5.325244,bird 4,342.3584836,316,384.4429361,1.21659157,3603.447732,291.6,20:00:00
22/07/2016, 20:27:05,22/07/2016 20:27,51.722149,-5.326934,bird 4,342.3438343,317,433.8771965,1.368697781,3510.732234,296.8,20:00:00
22/07/2016, 20:32:22,22/07/2016 20:32,51.725864,-5.328843,bird 4,340.5664963,318,431.3569875,1.356468514,3454.848718,296.8,20:00:00
22/07/2016, 20:37:40,22/07/2016 20:37,51.729519,-5.330925,bird 4,341.8109173,319,446.9056393,1.400958117,3466.083962,293.2,20:00:00
22/07/2016, 20:42:59,22/07/2016 20:42,51.733334,-5.332949,bird 4,341.970409,319,479.8531266,1.504241776,3524.061457,293.2,20:00:00
22/07/2016, 20:48:18,22/07/2016 20:48,51.737434,-5.335104,bird 4,342.6948718,320,514.9833081,1.609322838,3645.378265,296.6,20:00:00
22/07/2016, 20:53:38,22/07/2016 20:53,51.741852,-5.337327,bird 4,339.861615,317,547.2025386,1.726190973,3832.556412,296.6,20:00:00
22/07/2016, 20:58:55,22/07/2016 20:58,51.746468,-5.340061,bird 4,341.0943707,314,577.964086,1.840649956,4115.987447,299.1,20:00:00
22/07/2016, 21:04:09,22/07/2016 21:04,51.751381,-5.342779,bird 4,340.0383343,309,579.9770025,1.876948228,4459.269411,299.1,21:00:00
22/07/2016, 21:09:18,22/07/2016 21:09,51.756279,-5.345653,bird 4,344.5263355,311,617.5289518,1.985623639,4856.141678,303.5,21:00:00
22/07/2016, 02:23:52,22/07/2016 02:23,51.745461,-5.276587,bird 5,43.22191669,292,115.4177322,0.395266206,990.7444308,155.2,2:00:00
22/07/2016, 02:28:44,22/07/2016 02:28,51.746216,-5.275441,bird 5,2.069702386,291,101.0926736,0.347397504,1099.454377,155.7,2:00:00
22/07/2016, 02:33:35,22/07/2016 02:33,51.747124,-5.275388,bird 5,51.94892874,293,258.5561065,0.88244405,1193.209712,155.7,2:00:00
22/07/2016, 02:38:28,22/07/2016 02:38,51.748554,-5.272437,bird 5,24.46384874,292,42.43496049,0.145325207,1424.488529,154.9,2:00:00
22/07/2016, 02:43:20,22/07/2016 02:43,51.748901,-5.272182,bird 5,68.7877322,293,194.1718552,0.662702578,1466.798199,154.9,2:00:00
22/07/2016, 02:48:13,22/07/2016 02:48,51.749531,-5.26956,bird 5,45.25668942,292,65.83849578,0.225474301,1618.240869,158.8,2:00:00
22/07/2016, 02:53:05,22/07/2016 02:53,51.749947,-5.268882,bird 5,55.67826191,293,68.59486996,0.234112184,1682.379051,158.8,2:00:00
22/07/2016, 02:57:58,22/07/2016 02:57,51.750294,-5.268061,bird 5,61.84916951,305,75.61768716,0.247926843,1745.691216,158.7,2:00:00
22/07/2016, 03:03:03,22/07/2016 03:03,51.750614,-5.267095,bird 5,72.2641283,304,36.24380965,0.119223058,1812.602282,158.7,3:00:00
22/07/2016, 03:08:07,22/07/2016 03:08,51.750713,-5.266595,bird 5,63.98159853,305,101.924624,0.334179095,1841.464138,158,3:00:00
22/07/2016, 03:13:12,22/07/2016 03:13,51.751114,-5.265268,bird 5,34.11288406,305,85.6736538,0.280897226,1931.507406,158,3:00:00
22/07/2016, 03:18:17,22/07/2016 03:18,51.751751,-5.264571,bird 5,15.23257127,305,106.4538394,0.349028982,2016.952313,161.6,3:00:00
22/07/2016, 03:23:22,22/07/2016 03:23,51.752674,-5.264165,bird 5,35.80910881,308,93.78875068,0.304508931,2116.158851,161.6,3:00:00
22/07/2016, 03:28:30,22/07/2016 03:28,51.753357,-5.263369,bird 5,52.16036635,309,93.55747341,0.302774995,2209.807611,159.9,3:00:00
22/07/2016, 03:33:39,22/07/2016 03:33,51.753872,-5.262298,bird 5,42.76505734,309,89.67580189,0.290212951,2299.551682,159.9,3:00:00
22/07/2016, 03:38:48,22/07/2016 03:38,51.754463,-5.261415,bird 5,38.60580831,308,112.5928088,0.365561068,2388.552781,158.6,3:00:00
22/07/2016, 03:43:56,22/07/2016 03:43,51.755253,-5.260396,bird 5,19.44421027,308,104.9253089,0.340666587,2500.907106,158.6,3:00:00
22/07/2016, 03:49:04,22/07/2016 03:49,51.756142,-5.259889,bird 5,23.5747526,309,107.8430202,0.349006538,2601.139594,159.5,3:00:00
22/07/2016, 03:54:13,22/07/2016 03:54,51.75703,-5.259263,bird 5,30.71237028,310,109.2995023,0.35257904,2706.394651,159.5,3:00:00
22/07/2016, 03:59:23,22/07/2016 03:59,51.757874,-5.258453,bird 5,27.15441882,341,107.3468834,0.314800245,2815.16586,157.6,3:00:00
22/07/2016, 04:05:04,22/07/2016 04:05,51.758732,-5.257742,bird 5,14.62836833,304,76.3661652,0.251204491,2921.308312,157.7,4:00:00
22/07/2016, 04:10:08,22/07/2016 04:10,51.759396,-5.257462,bird 5,13.24706127,301,80.25254973,0.266619767,2992.893171,157.7,4:00:00
04/08/2016, 03:27:06,04/08/2016 03:27,51.756672,-5.272434,bird 6,21.75314326,310,110.6086648,0.356802145,2261.38762,268.4,3:00:00
04/08/2016, 03:32:16,04/08/2016 03:32,51.757595,-5.271839,bird 6,26.67525493,310,113.1192753,0.364900888,2371.562493,268.4,3:00:00
04/08/2016, 03:37:26,04/08/2016 03:37,51.758503,-5.271102,bird 6,5.649899174,310,551.8883251,1.78028492,2483.157813,269.3,3:00:00
04/08/2016, 03:42:36,04/08/2016 03:42,51.763439,-5.270313,bird 6,20.62700709,311,104.4138587,0.33573588,3024.459,269.3,3:00:00
04/08/2016, 03:52:57,04/08/2016 03:52,51.771641,-5.26915,bird 6,35.77048183,310,144.5268832,0.466215752,3927.88039,264.3,3:00:00
04/08/2016, 03:58:07,04/08/2016 03:58,51.772694,-5.267924,bird 6,33.31331675,313,135.110572,0.431663169,4061.506306,265.4,3:00:00
04/08/2016, 04:03:20,04/08/2016 04:03,51.773708,-5.266847,bird 6,19.58434145,307,366.9110736,1.195150077,4189.052844,265.4,4:00:00
04/08/2016, 22:21:19,04/08/2016 22:21,51.755508,-5.275313,bird 6,238.4765599,302,172.2622766,0.570404889,2084.522346,277.2,22:00:00
04/08/2016, 22:26:21,04/08/2016 22:26,51.7547,-5.277441,bird 6,238.214578,304,174.3734771,0.573596964,1967.661281,283.1,22:00:00
04/08/2016, 22:31:25,04/08/2016 22:31,51.753876,-5.279589,bird 6,240.1958166,305,174.4908429,0.572101124,1857.456368,283.1,22:00:00
04/08/2016, 22:36:30,04/08/2016 22:36,51.753098,-5.281783,bird 6,247.3437912,306,166.7336076,0.544881071,1762.654621,288,22:00:00
28/07/2016, 01:34:08,28/07/2016 01:34,51.762802,-5.296547,bird 8,285.8604343,297,633.8971818,2.134333946,3009.027163,194.5,1:00:00
28/07/2016, 01:39:05,28/07/2016 01:39,51.764355,-5.305381,bird 8,280.0508222,298,233.9503802,0.78506839,3411.643789,200.9,1:00:00
28/07/2016, 01:44:03,28/07/2016 01:44,51.764721,-5.308718,bird 8,302.8335828,303,224.2944999,0.740245874,3559.955376,200.9,1:00:00
28/07/2016, 01:49:06,28/07/2016 01:49,51.765812,-5.31145,bird 8,317.921613,327,179.1947209,0.547996088,3761.911891,205.7,1:00:00
28/07/2016, 01:54:33,28/07/2016 01:54,51.767006,-5.313192,bird 8,334.9625479,299,159.8405228,0.534583688,3938.365594,205.7,1:00:00
28/07/2016, 01:59:32,28/07/2016 01:59,51.768307,-5.314174,bird 8,348.470401,296,122.9920682,0.415513744,4096.60908,207.5,1:00:00
28/07/2016, 02:04:28,28/07/2016 02:04,51.76939,-5.314531,bird 8,355.0397581,292,97.94633731,0.335432662,4211.565366,207.5,2:00:00
28/07/2016, 02:09:20,28/07/2016 02:09,51.770267,-5.314654,bird 8,352.9448464,291,57.73986246,0.198418771,4299.018502,203.6,2:00:00
28/07/2016, 02:14:11,28/07/2016 02:14,51.770782,-5.314757,bird 8,314.9632852,293,31.37323967,0.107075903,4351.672116,203.6,2:00:00
28/07/2016, 02:19:04,28/07/2016 02:19,51.770981,-5.315079,bird 8,227.638489,291,164.6952859,0.565963182,4382.063241,203.8,2:00:00
28/07/2016, 02:23:55,28/07/2016 02:23,51.769985,-5.316844,bird 8,271.6369161,291,89.84374229,0.308741382,4353.077914,203.8,2:00:00
28/07/2016, 02:28:46,28/07/2016 02:28,51.770008,-5.318145,bird 8,273.6114317,290,122.2162431,0.421435321,4404.937628,213.5,2:00:00
28/07/2016, 02:33:36,28/07/2016 02:33,51.770077,-5.319912,bird 8,282.674608,291,153.0197245,0.525840978,4480.701586,213.5,2:00:00
28/07/2016, 02:38:27,28/07/2016 02:38,51.770378,-5.322075,bird 8,285.3318824,290,180.1232537,0.621114668,4595.431414,217.8,2:00:00
28/07/2016, 02:43:17,28/07/2016 02:43,51.770805,-5.324592,bird 8,290.1266539,292,190.5706376,0.65263917,4738.346334,217.8,2:00:00
28/07/2016, 02:48:09,28/07/2016 02:48,51.771393,-5.327185,bird 8,300.9718716,291,230.4866718,0.792050418,4900.853919,217.6,2:00:00
29/07/2016, 23:13:47,29/07/2016 23:13,51.739281,-5.276021,bird 8,246.6005681,290,510.9462503,1.761883622,479.7057647,320.5,23:00:00
04/08/2016, 02:55:21,04/08/2016 02:55,51.742825,-5.273089,bird 8,14.93173364,298,414.7301803,1.391712015,880.4331483,265.1,2:00:00
04/08/2016, 03:00:19,04/08/2016 03:00,51.746426,-5.271538,bird 8,350.3200535,286,338.4079926,1.183244729,1255.776248,265.1,3:00:00
04/08/2016, 03:05:05,04/08/2016 03:05,51.749424,-5.272364,bird 8,354.3718993,288,296.3933953,1.029143734,1512.784001,265.5,3:00:00
04/08/2016, 03:09:53,04/08/2016 03:09,51.752075,-5.272786,bird 8,10.98475225,288,114.5967969,0.397905545,1770.658232,265.5,3:00:00
04/08/2016, 03:14:41,04/08/2016 03:14,51.753086,-5.272469,bird 8,358.6219938,287,214.7994085,0.748429995,1883.403952,265.5,3:00:00
04/08/2016, 03:19:28,04/08/2016 03:19,51.755016,-5.272544,bird 8,341.9352607,287,380.0975098,1.324381567,2083.812903,264.3,3:00:00
04/08/2016, 03:29:02,04/08/2016 03:29,51.765892,-5.27903,bird 8,33.91757659,287,111.6425633,0.388998478,3192.390406,268.4,3:00:00
04/08/2016, 03:33:49,04/08/2016 03:33,51.766724,-5.278126,bird 8,353.3258071,287,476.8951208,1.661655473,3289.373813,268.4,3:00:00
04/08/2016, 03:38:36,04/08/2016 03:38,51.770981,-5.278931,bird 8,13.96308969,287,275.0890857,0.958498556,3757.558312,269.3,3:00:00
04/08/2016, 03:48:11,04/08/2016 03:48,51.781494,-5.279167,bird 8,11.07629183,287,219.2886039,0.76407179,4924.275285,264.3,3:00:00
05/08/2016, 00:34:41,05/08/2016 00:34,51.742592,-5.278685,bird 8,208.6640749,290,623.340884,2.149451324,640.7463029,292.4,0:00:00
05/08/2016, 02:31:19,05/08/2016 02:31,51.7449,-5.275711,bird 8,7.207825284,298,294.2905029,0.987552023,959.9480907,308.8,2:00:00
05/08/2016, 02:36:17,05/08/2016 02:36,51.747524,-5.275175,bird 8,356.5793472,298,303.6230228,1.018869204,1239.88599,308.7,2:00:00
05/08/2016, 02:41:15,05/08/2016 02:41,51.750248,-5.275438,bird 8,13.66301179,298,84.28628613,0.282839886,1517.945059,308.7,2:00:00
05/08/2016, 02:46:13,05/08/2016 02:46,51.750984,-5.275149,bird 8,1.200575171,298,433.9088439,1.456069946,1601.963097,307.1,2:00:00
05/08/2016, 02:51:11,05/08/2016 02:51,51.754883,-5.275017,bird 8,5.634381285,298,35.77780544,0.12005975,2021.754472,307.1,2:00:00
05/08/2016, 02:56:09,05/08/2016 02:56,51.755203,-5.274966,bird 8,320.1272517,301,78.07882045,0.259398075,2057.127529,311.5,2:00:00
05/08/2016, 03:01:10,05/08/2016 03:01,51.755741,-5.275692,bird 8,342.3884808,299,59.19820679,0.197987314,2104.085695,311.5,3:00:00
05/08/2016, 03:06:09,05/08/2016 03:06,51.756248,-5.275952,bird 8,1.653372619,298,150.3788808,0.504627117,2155.591566,313,3:00:00
05/08/2016, 03:11:07,05/08/2016 03:11,51.757599,-5.275889,bird 8,348.8156825,300,370.3422419,1.23447414,2303.829585,313,3:00:00
05/08/2016, 03:16:07,05/08/2016 03:16,51.760864,-5.276932,bird 8,354.711183,298,325.7250781,1.093037175,2650.596743,309.7,3:00:00
05/08/2016, 03:21:05,05/08/2016 03:21,51.763779,-5.277368,bird 8,1.796946351,298,24.1559817,0.081060341,2968.558266,309.7,3:00:00
05/08/2016, 03:26:03,05/08/2016 03:26,51.763996,-5.277357,bird 8,63.20929024,303,48.23497324,0.159191331,2992.62256,304.1,3:00:00
05/08/2016, 03:36:32,05/08/2016 03:36,51.771305,-5.281417,bird 8,37.66060953,298,76.81282367,0.257761153,3787.334393,307.3,3:00:00
05/08/2016, 03:41:30,05/08/2016 03:41,51.771851,-5.280736,bird 8,25.04725218,299,70.77281343,0.236698373,3848.954231,307.3,3:00:00
05/08/2016, 03:46:29,05/08/2016 03:46,51.772427,-5.280301,bird 8,33.60846463,298,83.02827927,0.278618387,3913.849252,300,3:00:00
05/08/2016, 03:51:27,05/08/2016 03:51,51.773048,-5.279634,bird 8,39.06390824,298,123.7940519,0.415416281,3984.608314,300,3:00:00
05/08/2016, 03:56:25,05/08/2016 03:56,51.773911,-5.278502,bird 8,16.27717652,300,99.00649094,0.330021636,4084.548877,305.6,3:00:00
05/08/2016, 04:01:25,05/08/2016 04:01,51.774765,-5.278099,bird 8,41.97408403,298,61.73065912,0.207149863,4181.097462,305.6,4:00:00
05/08/2016, 04:06:23,05/08/2016 04:06,51.775177,-5.2775,bird 8,28.56201881,299,181.3870136,0.606645531,4229.738265,293.3,4:00:00
05/08/2016, 04:11:22,05/08/2016 04:11,51.776608,-5.276241,bird 8,338.2867729,297,315.6818682,1.062901913,4395.605911,293.3,4:00:00
05/08/2016, 23:47:11,05/08/2016 23:47,51.741901,-5.280677,bird 8,185.3116838,316,548.5545431,1.735932098,527.4606996,246.1,23:00:00
04/08/2016, 02:07:15,04/08/2016 02:07,51.722073,-5.284574,bird 9,213.2063691,300,416.8001019,1.389333673,1695.498833,266.6,2:00:00
04/08/2016, 02:12:15,04/08/2016 02:12,51.718941,-5.287883,bird 9,201.6044045,303,331.1189045,1.092801665,2073.366519,266.6,2:00:00
04/08/2016, 02:17:18,04/08/2016 02:17,51.716175,-5.289651,bird 9,233.7228977,301,119.2283712,0.396107546,2399.243056,262,2:00:00
04/08/2016, 02:22:19,04/08/2016 02:22,51.715542,-5.291043,bird 9,233.8162602,301,642.3628426,2.134095823,2489.826827,262,2:00:00